Location: The Saddle
(36.8333°N, 80.3417°W)
Time: 03:20:20
(UTC-04:00)

Vanguard 3 - Pass Details

Date: 02 March 2024
Orbit: 510 x 3234 km, 33.3° (Epoch: 24 April)

Event Time Altitude Azimuth Distance (km) Brightness Sun altitude
Rises 00:58:55 0° 284° (WNW) 7,203 12.0 -59.6°
Reaches altitude 10° 01:04:09 10° 280° (W) 6,113 11.5 -59.4°
Enters shadow 01:06:03 14° 278° (W) 5,717 11.3 -59.3°
